sat.trackr.live / text

‹ back to catalog

STARLINK-2430

NORAD 48100 · 2021-027J

PAYLOAD ACTIVE UNKNOWN

§ Identity

Operator
Country
US
Launch date
2021-04-07
Launch site
AFETR
Launch vehicle
Mass (kg)
RCS (m²)

Purposes: comms

External: N2YO · Heavens-Above · Gunter

§ Orbital elements

Epoch: 2026-05-25T01:13:17.747904Z

Period
94.01 min
Inclination
53.1582°
Eccentricity
0.0001180
Mean motion
15.31709456 rev/d
Perigee alt
469.9 km
Apogee alt
471.5 km
Semi-major
6,848.8 km
B*
5.0135e-5
RAAN
157.3230°
Arg perigee
83.2557°
Mean anomaly
276.8579°
Rev number
28,438

§ Raw data

STARLINK-24301 48100U 21027J   26145.05089986  .00001191  00000+0  50135-4 0  99972 48100  53.1582 157.3230 0001180  83.2557 276.8579 15.31709456284380

JSON: /api/v1/satellites/48100 · /tle

For live sub-satellite position, see the globe view (requires WebGL).

§ Visibility from observer

Set your observer location to see the next 7 days of passes ≥ 10°. The values pass through the URL so the page stays shareable.

No JS? Fill the form by hand. The geolocation button needs JavaScript.